www.pogodaiklimat.ru

Погода и климат >> Архив погоды >> Антарктида >> Cape Ross


ПОГОДА на Cape Ross

  • Прогноз погоды на Cape Ross
  • Монитор погоды на Cape Ross

АРХИВ ПОГОДЫ на Cape Ross

Время (UTC), дата Ветер
(напр.,м/с)
 
Видим.   Явления Облачность Т
(С)
Тd
(С)
f
(%)
Тe
(С)
Тes
(С)
Комфортность P
(гПа)
Po
(гПа)
Тmin
(С)
Tmax
(С)
R
(мм)
R24
(мм)
S
(см)
07 16.02 ЮВ 8 н/о н/о -5.9 979.8
08 16.02 ЮВ 6 н/о н/о -5.9 980.4
09 16.02 ЮВ 6 н/о н/о -5.9 980.7
10 16.02 Ю 9 н/о н/о -6.5 981.3
11 16.02 Ю 5 н/о н/о -6.5 989.3
12 16.02 Ю 9 н/о н/о -6.6 981.6
13 16.02 Ю 8 н/о н/о -7.8 981.8
14 16.02 Ю 4 н/о н/о -7.7 891.9
15 16.02 Ю 6 н/о н/о -7.6 982.0
16 16.02 Ю 8 н/о н/о -8.5 982.0
17 16.02 ЮЗ 9 н/о н/о -8.8 982.3
18 16.02 ЮЗ 9 н/о н/о -8.8 982.3
19 16.02 ЮЗ 5 н/о н/о -8.9 982.6
20 16.02 ЮЗ 7 н/о н/о -8.3 983.0
21 16.02 ЮЗ 6 н/о н/о -7.9 983.3
22 16.02 ЮЗ 6 н/о н/о -8.3 983.4
23 16.02 Ю 5 н/о н/о -7.5 983.9
00 17.02 Ю 3 н/о н/о -7.5 983.9
01 17.02 Ю 7 н/о н/о -8.2 984.1
02 17.02 Ю 7 н/о н/о -7.7 984.5
03 17.02 Ю 7 н/о н/о -7.5 984.8
04 17.02 ЮВ 4 н/о н/о -7.4 985.5
05 17.02 ЮВ 4 н/о н/о -7.4 985.5
06 17.02 Ю 5 н/о н/о -8.0 985.7
07 17.02 Ю 4 н/о н/о -7.9 985.9
08 17.02 Ю 3 н/о н/о -7.8 986.0
09 17.02 ЮЗ 4 н/о н/о -8.0 986.0
10 17.02 Ю 2 н/о н/о -7.8 986.2
11 17.02 Ю 1 н/о н/о -7.8 986.2
12 17.02 З 1 н/о н/о -8.0 986.4
13 17.02 З 4 н/о н/о -8.7 986.1
14 17.02 З 4 н/о н/о -8.3 985.9
15 17.02 ЮЗ 2 н/о н/о -8.2 985.6
16 17.02 ЮЗ 2 н/о н/о -8.5 985.3
17 17.02 З 6 н/о н/о -9.0 984.9
18 17.02 З 4 н/о н/о -8.9 984.7
19 17.02 З 4 н/о н/о -8.9 984.4
20 17.02 З 4 н/о н/о -8.7 984.1
21 17.02 ЮВ 2 н/о н/о -6.3 983.7
22 17.02 ЮВ 2 н/о н/о -6.3 983.7
23 17.02 СВ 1 н/о н/о -5.9 983.5
00 18.02 СЗ 1 н/о н/о -5.7 983.3
01 18.02 З 1 н/о н/о -5.1 982.6
02 18.02 З 1 н/о н/о -5.1 982.6
03 18.02 З 2 н/о н/о -4.3 982.1
04 18.02 СЗ 4 н/о н/о -4.9 981.5
05 18.02 СЗ 4 н/о н/о -4.9 981.5
06 18.02 СЗ 4 н/о н/о -4.8 981.2
07 18.02 З 3 н/о н/о -4.9 980.8
08 18.02 З 3 н/о н/о -4.9 980.8
09 18.02 СЗ 1 н/о н/о -5.2 980.7
10 18.02 СЗ 1 н/о н/о -5.2 980.7
11 18.02 СЗ 2 н/о н/о -5.0 980.8
12 18.02 0 н/о н/о -5.4 981.0
13 18.02 Ю 3 н/о н/о -6.1 981.1
14 18.02 Ю 6 н/о н/о -6.9 981.2
15 18.02 Ю 6 н/о н/о -6.1 981.2
16 18.02 Ю 7 н/о н/о -7.3 981.3
17 18.02 Ю 6 н/о н/о -7.2 981.7
18 18.02 Ю 8 н/о н/о -7.4 982.0
19 18.02 Ю 8 н/о н/о -7.7 982.9
20 18.02 Ю 4 н/о н/о -7.7 982.9
21 18.02 Ю 7 н/о н/о -7.4 983.6
22 18.02 Ю 7 н/о н/о -7.5 984.1
23 18.02 Ю 6 н/о н/о -6.7 984.7
00 19.02 Ю 6 н/о н/о -6.5 985.4
01 19.02 Ю 6 н/о н/о -6.5 985.4
02 19.02 ЮВ 6 н/о н/о -5.6 986.3
03 19.02 ЮВ 3 н/о н/о -5.6 986.3
04 19.02 ЮВ 7 н/о н/о -5.4 986.5
05 19.02 Ю 6 н/о н/о -6.1 987.6
06 19.02 Ю 6 н/о н/о -6.1 987.6
07 19.02 ЮЗ 5 н/о н/о -6.0 987.9
08 19.02 ЮЗ 5 н/о н/о -6.0 987.9
09 19.02 Ю 6 н/о н/о -6.5 988.3
10 19.02 Ю 8 н/о н/о -7.1 988.4
11 19.02 Ю 10 н/о н/о -8.3 988.5
12 19.02 Ю 7 н/о н/о -8.8 989.4
13 19.02 Ю 7 н/о н/о -8.8 989.4
14 19.02 Ю 6 н/о н/о -8.9 989.4
15 19.02 Ю 8 н/о н/о -9.0 989.5
16 19.02 Ю 8 н/о н/о -9.6 989.4
17 19.02 Ю 5 н/о н/о -9.6 989.6
18 19.02 Ю 5 н/о н/о -9.6 989.6
19 19.02 З 4 н/о н/о -8.8 989.4
20 19.02 З 4 н/о н/о -8.8 989.4
21 19.02 ЮВ 3 н/о н/о -7.7 989.6
22 19.02 Ю 5 н/о н/о -6.6 988.9
23 19.02 Ю 5 н/о н/о -6.6 988.9
00 20.02 Ю 3 н/о н/о -6.3 988.6
01 20.02 Ю 2 н/о н/о -6.0 988.2
02 20.02 З 2 н/о н/о -6.2 987.8
03 20.02 З 5 н/о н/о -5.4 987.0
04 20.02 Ю 1 н/о н/о -4.6 986.5
05 20.02 Ю 1 н/о н/о -4.6 986.5
06 20.02 Ю 1 н/о н/о -5.0 986.3
07 20.02 ЮВ 1 н/о н/о -4.9 985.9
08 20.02 0 н/о н/о -4.8 985.6
09 20.02 0 н/о н/о -4.4 985.2
10 20.02 СЗ 2 н/о н/о -4.8 984.6
11 20.02 СЗ 1 н/о н/о -4.8 984.6
12 20.02 ЮЗ 2 н/о н/о -6.1 984.1
13 20.02 ЮЗ 2 н/о н/о -6.1 984.1
14 20.02 Ю 1 н/о н/о -5.8 983.7
15 20.02 0 н/о н/о -6.4 983.2
16 20.02 0 н/о н/о -6.4 983.2
17 20.02 ЮЗ 2 н/о н/о -7.1 982.7
18 20.02 ЮЗ 2 н/о н/о -7.1 982.7
19 20.02 Ю 2 н/о н/о -6.7 982.6
20 20.02 Ю 2 н/о н/о -6.9 982.5
21 20.02 Ю 3 н/о н/о -7.1 982.6
22 20.02 Ю 4 н/о н/о -7.2 982.4
23 20.02 Ю 7 н/о н/о -8.2 982.2
00 21.02 Ю 4 н/о н/о -8.3 982.1
01 21.02 Ю 6 н/о н/о -7.8 982.0
02 21.02 Ю 7 н/о н/о -7.7 981.7
03 21.02 Ю 7 н/о н/о -7.9 981.5
04 21.02 Ю 7 н/о н/о -7.9 981.4
05 21.02 Ю 6 н/о н/о -7.9 981.4
06 21.02 Ю 6 н/о н/о -8.2 980.9
07 21.02 Ю 3 н/о н/о -8.2 980.9
08 21.02 Ю 7 н/о н/о -8.7 980.8
09 21.02 Ю 6 н/о н/о -9.0 980.6
10 21.02 Ю 3 н/о н/о -8.9 980.5
11 21.02 Ю 6 н/о н/о -9.0 980.6
12 21.02 Ю 6 н/о н/о -9.2 980.7
13 21.02 Ю 7 н/о н/о -9.5 980.5
14 21.02 Ю 8 н/о н/о -10.1 980.5
15 21.02 Ю 8 н/о н/о -9.8 980.5
16 21.02 Ю 9 н/о н/о -9.8 980.6
17 21.02 Ю 9 н/о н/о -9.8 980.5
18 21.02 Ю 5 н/о н/о -9.7 980.8
19 21.02 Ю 9 н/о н/о -9.8 980.9
20 21.02 Ю 9 н/о н/о -10.2 981.2
21 21.02 Ю 10 н/о н/о -29.8 981.1
22 21.02 Ю 10 н/о н/о -9.9 981.4
23 21.02 Ю 10 н/о н/о -9.8 981.5
00 22.02 Ю 7 н/о н/о -9.8 982.1
01 22.02 Ю 8 н/о н/о -9.8 982.0
02 22.02 Ю 8 н/о н/о -9.8 982.0
03 22.02 Ю 3 н/о н/о -9.6 981.9
04 22.02 Ю 6 н/о н/о -9.6 981.9
05 22.02 Ю 6 н/о н/о -9.6 981.7
06 22.02 Ю 6 н/о н/о -9.6 981.5
07 22.02 Ю 3 н/о н/о -9.5 981.5
08 22.02 Ю 7 н/о н/о -9.7 981.1
09 22.02 Ю 7 н/о н/о -9.7 981.1
10 22.02 Ю 8 н/о н/о -9.7 981.0
11 22.02 Ю 7 н/о н/о -10.0 980.7
12 22.02 Ю 8 н/о н/о -10.7 980.3
13 22.02 Ю 7 н/о н/о -11.1 979.9
14 22.02 Ю 7 н/о н/о -11.1 979.9
15 22.02 Ю 6 н/о н/о -11.4 979.6
16 22.02 ЮЗ 5 н/о н/о -11.3 979.1
17 22.02 ЮЗ 4 н/о н/о -10.9 978.8
18 22.02 ЮЗ 2 н/о н/о -10.3 978.6
19 22.02 З 1 н/о н/о -10.2 978.2
20 22.02 Ю 3 н/о н/о -10.0 977.9
21 22.02 Ю 3 н/о н/о -10.0 977.9
22 22.02 ЮЗ 2 н/о н/о -10.0 977.7
23 22.02 Ю 6 н/о н/о -9.8 977.7
00 23.02 Ю 3 н/о н/о -9.7 977.7
01 23.02 Ю 8 н/о н/о -9.5 977.4
02 23.02 Ю 8 н/о н/о -9.3 977.2
03 23.02 Ю 7 н/о н/о -9.4 977.1
04 23.02 Ю 5 н/о н/о -9.3 977.2
05 23.02 Ю 6 н/о н/о -9.0 977.0

 

Местоположение метеостанции Cape Ross (Антарктида): широта -76.71 долгота 162.96 высота над уровнем моря 149 м.

В архиве по умолчанию представлена погода на Cape Ross за последнюю неделю. Архивные данные за месяц целиком и за предыдущие месяцы, начиная с января 2011 года, Вы можете получить, выбрав интересующий диапазон дат из раскрывающегося списка и нажав кнопку "Ввод!".


*Определитесь, кто Вы:
робот инопланетянин человек

Внимание! Время в таблицах - всемирное. Для получения местного времени необходимо прибавить поправку, которая равна 0 ч.

Смотрите также архив погоды в соседних городах и на ближайших метеорологических станциях:

Погода на Marble Point (Антарктида) (82 км)
Погода на Мак-Мердо (Антарктида) (156 км)
Погода на Pegasus North (Антарктида) (163 км)
Погода на Manuela (Антарктида) (198 км)
Погода на Minna Bluff (Антарктида) (223 км)
Погода на Baia Terra Nova (Антарктида) (226 км)
Погода на Ferrell (Антарктида) (232 км)
Погода на Linda (Антарктида) (233 км)
Погода на Чан Бого (Антарктида) (235 км)
Погода на Priestley Glacier (Антарктида) (349 км)

Пояснения к столбцам:

Ветер - указаны скорость ветра в м/с - средняя за 10 мин, порывы в срок и между сроками (в фигурных скобках) и направление, откуда дует ветер: С - северный, СВ - северо-восточный, В - восточный, ЮВ - юго-восточный, Ю - южный, ЮЗ - юго-западный, З - западный, СЗ - северо-западный.
Видимость - горизонтальная дальность видимости в метрах или километрах. При видимости от 1 до 10 км при отсутствии осадков обычно наблюдается дымка, при ухудшении видимости до 1 км и менее - туман. В сухую погоду видимость может ухудшаться дымом, пылью или мглою.
Явления - указаны атмосферные явления, наблюдавшиеся в срок или в последний час перед сроком; фигурными скобками обозначены явления, наблюдавшиеся между сроками (за 1-3 часа до срока); квадратными скобками обозначены град или гололедные отложения с указанием их диаметра в мм.
Облачность - указаны через наклонную черту общая и нижняя облачность в баллах и высота нижней границы облаков в метрах; квадратными скобками обозначены формы облаков: Ci - перистые, Cs - перисто-слоистые, Cc - перисто-кучевые, Ac - высококучевые, As - высокослоистые, Sc - слоисто-кучевые, Ns - слоисто-дождевые, Cu - кучевые, Cb - кучево-дождевые. Подробнее классификацию облаков см. в Атласе облаков (PDF).
T - Температура воздуха - температура, измеренная на высоте 2 м над землей.
Td - Температура точки росы - температура, при понижении до которой содержащийся в воздухе водяной пар достигнет насыщения.
f - Относительная влажность воздуха - влажноcть воздуха, измеренная на высоте 2 м над землей.
Te - Эффективная температура - температура, которую ощущает одетый по сезону человек в тени. Характеристика душности погоды. При расчете учитывается влияние влажности воздуха и скорости ветра на теплоощущения человека.
Tes - Эффективная температура на солнце - температура, которую ощущает человек, с поправкой на солнечный нагрев. Характеристика знойности погоды. Зависит от высоты солнца над горизонтом, облачности и скорости ветра. Ночью, в пасмурную погоду, а также при ветре 12 м/с и более поправка равна нулю.
P - Атмосферное давление - приведенное к уровню моря атмосферное давление.
Po - Атмосферное давление - измеренное на уровне метеостанции атмосферное давление.
Tmin - Минимальная температура - минимум температуры воздуха на высоте 2 м над землей.
Tmax - Максимальная температура - максимум температуры воздуха на высоте 2 м над землей.
R - Количество осадков - Количество выпавших осадков за период времени, мм. При наведении курсора мыши на число - период времени, за который выпало указанное количество осадков.
R24 - Количество осадков - Количество выпавших осадков за 24 часа, мм.
S - Снежный покров - Высота снежного покрова, см. При наведении курсора мыши на число - состояние снежного покрова и степень покрытия местности в баллах.